Regional Weather Roundup
Issued by NWS

Home | Current Version | Previous Version | Text Only | Print | Product List | Glossary On
Versions: 1 2 3 4 5 6 7 8 9 10 11 12 13 14 15 16 17 18 19 20 21 22 23 24 25 26 27 28 29 30 31 32 33 34 35 36 37 38 39 40 41 42 43 44 45 46 47 48 49 50
000
ASUS43 KLSX 241457
RWRMO

WEATHER SUMMARY FOR MISSOURI
NATIONAL WEATHER SERVICE SPRINGFIELD MO
1000 AM CDT MON APR 24 2017

NOTE: "FAIR" INDICATES FEW OR NO CLOUDS BELOW 12,000 FEET WITH NO
       SIGNIFICANT WEATHER AND/OR OBSTRUCTIONS TO VISIBILITY.
       CURRENT SKY AND/OR WEATHER CONDITIONS ARE NOT AVAILABLE FOR
       CHILLICOTHE AND FARMINGTON.

MOZ001>031-035>038-043-044-053-054-241600-
...NORTHERN AND WESTERN MISSOURI...

CITY           SKY/WX    TMP DP  RH WIND       PRES   REMARKS
KANSAS CTY INT PTSUNNY   64  37  36 S24G32    29.85F
LEE`S SUMMIT   SUNNY     64  35  34 S21G30    29.89F
ST JOSEPH      SUNNY     64  41  42 S21G26    29.83F
CHILLICOTHE      N/A     63  40  42 SE9       29.91F

$$
MOZ066>068-077>081-088>096-101>105-241600-
...SOUTHWEST MISSOURI...

CITY           SKY/WX    TMP DP  RH WIND       PRES   REMARKS
SPRINGFIELD    SUNNY     62  40  44 SE9       29.97S
JOPLIN         SUNNY     65  42  43 S13       29.94F
BRANSON        MOSUNNY   64  37  36 SE6       30.00S

$$
MOZ032>034-039>042-045>050-055>058-069>072-241600-
...CENTRAL MISSOURI...

CITY           SKY/WX    TMP DP  RH WIND       PRES   REMARKS
COLUMBIA       NOT AVBL
JEFFERSON CITY SUNNY     58  43  57 SE6       29.97F
ROLLA          SUNNY     61  42  49 S6        29.97S
SEDALIA        SUNNY     66  40  38 S13       29.96F

$$
MOZ051-052-059>065-241600-
...EAST CENTRAL MISSOURI...

CITY           SKY/WX    TMP DP  RH WIND       PRES   REMARKS
ST LOUIS INTL  CLOUDY    64  38  38 E6        29.97S

$$
MOZ072>076-082>087-097>100-106>115-241600-
...SOUTH CENTRAL AND SOUTHEAST MISSOURI...

CITY           SKY/WX    TMP DP  RH WIND       PRES   REMARKS
CAPE GIRARDEAU SUNNY     65  46  50 NE6       29.93S
POPLAR BLUFF     N/A     63  43  48 NE9       29.94S
WEST PLAINS    SUNNY     65  35  33 CALM      29.99S

$$


USA.gov is the U.S. government's official web portal to all federal, state and local government web resources and services.